Location: *
(40.7190°N, 4.2480°W)
Time: 09:09:06
(UTC+00:00)

STARLINK-1076 - Pass Details

Date: 18 February 2020
Orbit: 374 x 385 km, 53.0° (Epoch: 10 April)

Event Time Altitude Azimuth Distance (km) Brightness Sun altitude
Exits shadow 05:36:14 73° 279° (W) 394 2.6 -18.0°
Maximum altitude 05:36:24 77° 322° (NW) 386 2.7 -18.0°
Drops below altitude 10° 05:39:29 10° 49° (NE) 1,378 6.3 -17.4°
Sets 05:41:32 0° 51° (NE) 2,232 7.5 -17.0°
